CW9254 Weather Reports


time (UTC)temp
C
wind
direction
speed
KPH
gust
KPH
rain 1hr
cm
rain 24hr
cm
rain mn
cm
humidity
%
barometer
mb
20260505102004 15 8 0.0 3.2 0.00 0.03 0.03 70 1021.7
20260505101503 15 4 0.0 3.2 0.00 0.03 0.03 69 1021.8
20260505101003 15 8 0.0 1.6 0.00 0.03 0.03 69 1021.8
20260505100504 15 8 0.0 1.6 0.00 0.03 0.03 69 1021.8
20260505100011 15 8 0.0 3.2 0.00 0.03 0.03 69 1021.8
20260505095502 15 9 0.0 3.2 0.00 0.03 0.03 68 1021.9
20260505095004 15 9 0.0 3.2 0.00 0.03 0.03 68 1022.0
20260505094503 15 8 0.0 3.2 0.00 0.03 0.03 68 1021.8
20260505094003 15 8 0.0 3.2 0.00 0.03 0.03 68 1021.9
20260505093503 15 8 1.6 3.2 0.00 0.03 0.03 68 1021.8
20260505093003 15 359 0.0 3.2 0.00 0.03 0.03 68 1021.6
20260505092502 15 8 0.0 3.2 0.00 0.03 0.03 68 1021.7
20260505092003 15 4 0.0 3.2 0.00 0.03 0.03 67 1021.7
20260505091502 15 8 1.6 3.2 0.00 0.03 0.03 67 1021.7
20260505091003 15 8 0.0 3.2 0.00 0.03 0.03 67 1021.7
20260505090503 15 8 0.0 3.2 0.00 0.03 0.03 66 1021.6
20260505090005 15 8 0.0 3.2 0.00 0.03 0.03 66 1021.5
20260505085503 15 8 0.0 3.2 0.00 0.03 0.03 66 1021.6
20260505085003 15 9 0.0 3.2 0.00 0.03 0.03 66 1021.5
20260505084503 15 8 0.0 3.2 0.00 0.03 0.03 66 1021.6
20260505084004 15 8 0.0 3.2 0.00 0.03 0.03 66 1021.4
20260505083502 15 8 0.0 3.2 0.00 0.03 0.03 66 1021.3
20260505083007 15 8 0.0 3.2 0.00 0.03 0.03 65 1021.3
20260505082504 15 8 1.6 3.2 0.00 0.03 0.03 66 1021.2
20260505082003 15 8 1.6 3.2 0.00 0.03 0.03 66 1021.2
20260505081506 15 8 1.6 3.2 0.00 0.03 0.03 66 1021.2
20260505081005 15 8 0.0 4.8 0.00 0.03 0.03 66 1021.0
20260505080504 15 8 1.6 4.8 0.00 0.03 0.03 66 1020.9
20260505080005 15 359 0.0 3.2 0.00 0.03 0.03 67 1020.9
20260505075504 15 354 1.6 4.8 0.00 0.05 0.03 67 1020.8
20260505075007 15 344 1.6 4.8 0.00 0.05 0.03 67 1020.8
20260505074503 15 350 1.6 4.8 0.00 0.05 0.03 67 1020.9
20260505074003 15 359 1.6 4.8 0.00 0.05 0.03 66 1020.7
20260505073503 15 354 1.6 4.8 0.00 0.05 0.03 66 1020.7
20260505073003 16 354 0.0 6.4 0.00 0.05 0.03 66 1020.7
20260505072502 16 335 1.6 6.4 0.00 0.05 0.03 66 1020.6
20260505072003 16 349 0.0 4.8 0.00 0.05 0.03 66 1020.6
20260505071508 16 340 1.6 6.4 0.00 0.05 0.03 66 1020.6
20260505071003 16 349 1.6 6.4 0.00 0.05 0.03 65 1020.6
20260505070503 16 345 1.6 4.8 0.00 0.05 0.03 65 1020.6
20260505070005 16 349 1.6 4.8 0.00 0.05 0.03 65 1020.6
20260505065503 16 324 1.6 4.8 0.00 0.08 0.03 65 1020.5
20260505065002 16 316 1.6 4.8 0.00 0.08 0.03 65 1020.4
20260505064504 16 328 1.6 4.8 0.00 0.08 0.03 65 1020.4
20260505064003 16 301 1.6 6.4 0.00 0.08 0.03 65 1020.4
20260505063503 16 330 0.0 6.4 0.00 0.08 0.03 66 1020.3
20260505063009 16 348 0.0 4.8 0.00 0.08 0.03 66 1020.3
20260505062503 16 348 1.6 4.8 0.00 0.08 0.03 65 1020.3
20260505062002 16 344 1.6 4.8 0.00 0.08 0.03 64 1020.3
20260505061508 16 335 1.6 4.8 0.00 0.08 0.03 64 1020.2
20260505061002 16 347 0.0 4.8 0.00 0.08 0.03 64 1020.3
20260505060506 16 344 0.0 4.8 0.00 0.08 0.03 64 1020.2
20260505060005 16 344 0.0 4.8 0.00 0.08 0.03 64 1020.2
20260505055503 16 316 0.0 3.2 0.00 0.08 0.03 64 1020.2
20260505055003 16 303 1.6 6.4 0.00 0.08 0.03 64 1020.0
20260505054503 16 290 1.6 6.4 0.00 0.08 0.03 64 1019.9
20260505054003 16 268 1.6 4.8 0.00 0.08 0.03 65 1020.0
20260505053502 16 332 1.6 4.8 0.00 0.08 0.03 65 1019.9
20260505053003 16 272 1.6 6.4 0.00 0.08 0.03 65 1019.9
20260505052505 16 297 0.0 6.4 0.00 0.08 0.03 65 1019.9
20260505052003 16 263 0.0 6.4 0.00 0.08 0.03 65 1019.7
20260505051506 16 266 1.6 6.4 0.00 0.08 0.03 64 1019.7
20260505051006 17 266 1.6 6.4 0.00 0.08 0.03 64 1019.7
20260505050502 17 255 0.0 6.4 0.00 0.08 0.03 64 1019.6
20260505041504 17 294 1.6 4.8 0.00 0.08 0.03 62 1019.3
20260505041003 17 287 1.6 6.4 0.00 0.08 0.03 62 1019.3
20260505040503 17 259 1.6 6.4 0.00 0.08 0.03 61 1019.3
20260505040006 17 318 1.6 6.4 0.00 0.08 0.03 61 1019.3
20260505035502 17 256 3.2 6.4 0.00 0.08 0.03 61 1019.3
20260505035001 17 359 1.6 6.4 0.00 0.08 0.03 61 1019.2
20260505034501 17 253 1.6 8.0 0.00 0.08 0.03 61 1019.2
20260505034002 17 308 3.2 8.0 0.00 0.08 0.03 60 1019.2
20260505033502 17 336 1.6 6.4 0.00 0.08 0.03 59 1019.2
20260505033002 17 271 1.6 11.3 0.00 0.08 0.03 60 1019.2
20260505032502 17 268 1.6 11.3 0.00 0.08 0.03 60 1019.1
20260505032004 17 270 1.6 8.0 0.00 0.08 0.03 61 1019.1
20260505031502 17 308 1.6 6.4 0.00 0.08 0.03 61 1019.1
20260505030502 17 345 1.6 12.9 0.00 0.08 0.03 59 1019.1
20260505030015 17 288 1.6 12.9 0.00 0.08 0.03 59 1019.0
20260505025504 17 359 0.0 6.4 0.00 0.08 0.03 61 1019.1
20260505025002 17 282 1.6 8.0 0.00 0.08 0.03 59 1019.1
20260505024502 17 264 1.6 8.0 0.00 0.08 0.03 60 1019.1
20260505024002 17 333 1.6 14.5 0.00 0.08 0.03 59 1019.2
20260505023502 17 268 3.2 14.5 0.00 0.08 0.03 60 1019.1
20260505023002 17 293 1.6 9.7 0.00 0.08 0.03 61 1019.1
20260505022502 17 311 3.2 9.7 0.00 0.08 0.03 61 1019.2
20260505022002 17 343 1.6 9.7 0.00 0.08 0.03 62 1019.3
20260505021502 17 330 1.6 6.4 0.00 0.08 0.03 63 1019.3
20260505021002 16 297 3.2 9.7 0.00 0.08 0.03 63 1019.3
20260505020502 16 316 3.2 16.1 0.00 0.08 0.03 63 1019.3
20260505020004 16 306 1.6 8.0 0.00 0.08 0.03 64 1019.4
20260505015502 16 359 3.2 8.0 0.00 0.08 0.03 65 1019.6
20260505015002 16 9 3.2 9.7 0.00 0.08 0.03 66 1019.6
20260505014502 15 325 1.6 9.7 0.00 0.08 0.03 67 1019.8
20260505014002 15 321 1.6 12.9 0.00 0.08 0.03 67 1019.8
20260505013502 15 21 3.2 9.7 0.00 0.08 0.03 68 1019.8
20260505013002 15 354 3.2 14.5 0.00 0.08 0.03 68 1019.8
20260505012502 15 280 3.2 14.5 0.00 0.08 0.03 69 1019.8
20260505012002 15 337 3.2 14.5 0.00 0.08 0.03 68 1019.8
20260505011504 15 359 3.2 9.7 0.00 0.08 0.03 69 1019.9
20260505011004 15 307 1.6 9.7 0.00 0.08 0.03 70 1019.9
20260505010502 15 310 3.2 9.7 0.00 0.08 0.03 69 1019.9
20260505010005 15 272 3.2 8.0 0.00 0.08 0.03 69 1019.7
20260505005502 15 268 1.6 9.7 0.00 0.08 0.03 69 1019.7
20260505005004 15 244 3.2 9.7 0.00 0.08 0.03 69 1019.7
20260505004501 15 281 1.6 6.4 0.00 0.08 0.03 69 1019.6
20260505004001 15 322 1.6 8.0 0.00 0.08 0.03 69 1019.7
20260505003505 15 324 1.6 8.0 0.00 0.08 0.03 70 1019.6
20260505003002 15 305 1.6 8.0 0.00 0.08 0.03 71 1019.5
20260505002502 15 274 3.2 8.0 0.00 0.08 0.03 71 1019.5
20260505002002 15 359 3.2 8.0 0.00 0.08 0.03 70 1019.4
20260505001502 15 359 1.6 12.9 0.00 0.08 0.03 71 1019.4
20260505001003 15 344 3.2 12.9 0.00 0.08 0.03 72 1019.4
20260505000502 14 260 1.6 9.7 0.00 0.08 0.03 72 1019.3
20260505000004 14 324 3.2 12.9 0.00 0.08 0.03 71 1019.3
20260504235502 15 301 1.6 12.9 0.00 0.08 0.03 72 1019.2
20260504235003 15 275 1.6 12.9 0.00 0.08 0.03 73 1019.1
20260504234501 14 311 3.2 12.9 0.00 0.08 0.03 74 1019.0
20260504234002 14 345 3.2 9.7 0.00 0.08 0.03 75 1019.0
20260504233502 14 328 3.2 9.7 0.00 0.08 0.03 77 1019.0
20260504233002 14 359 3.2 9.7 0.00 0.08 0.03 77 1019.0
20260504232501 13 323 1.6 9.7 0.00 0.08 0.03 79 1019.0
20260504232013 13 310 4.8 9.7 0.00 0.08 0.03 79 1019.0
20260504231502 13 326 3.2 9.7 0.00 0.08 0.03 80 1018.8
20260504231004 13 326 1.6 9.7 0.00 0.08 0.03 82 1018.8
20260504230502 13 291 3.2 8.0 0.00 0.08 0.03 82 1018.8
20260504230005 13 318 1.6 9.7 0.00 0.08 0.03 84 1018.6
20260504225501 13 9 1.6 9.7 0.00 0.08 0.03 84 1018.6
20260504225003 13 277 3.2 8.0 0.00 0.08 0.03 86 1018.5
20260504224502 12 311 1.6 8.0 0.00 0.08 0.03 87 1018.5
20260504224002 12 314 3.2 8.0 0.00 0.08 0.03 88 1018.4
20260504223504 12 341 1.6 6.4 0.00 0.08 0.03 88 1018.3
20260504223002 12 337 1.6 6.4 0.00 0.08 0.03 89 1018.3
20260504222502 12 332 0.0 8.0 0.00 0.08 0.03 90 1018.1
20260504222003 12 310 1.6 8.0 0.00 0.08 0.03 90 1018.1
20260504221502 12 354 1.6 6.4 0.00 0.08 0.03 91 1018.0
20260504221002 11 328 1.6 6.4 0.00 0.08 0.03 91 1018.0
20260504220502 11 348 1.6 6.4 0.00 0.08 0.03 92 1017.9
20260504220004 11 318 0.0 4.8 0.00 0.08 0.03 92 1017.8
20260504215502 11 359 1.6 4.8 0.00 0.08 0.03 92 1017.8
20260504215002 11 348 1.6 4.8 0.00 0.08 0.03 92 1017.7
20260504214505 11 322 0.0 4.8 0.00 0.08 0.03 92 1017.6
20260504214003 11 325 1.6 4.8 0.00 0.08 0.03 92 1017.5
20260504213503 11 326 1.6 4.8 0.00 0.08 0.03 92 1017.4
20260504213002 11 320 1.6 4.8 0.03 0.08 0.03 92 1017.3
20260504212502 11 320 0.0 4.8 0.03 0.08 0.03 92 1017.3
20260504212002 11 328 1.6 4.8 0.03 0.08 0.03 92 1017.2
20260504211502 11 340 0.0 3.2 0.03 0.08 0.03 92 1017.1
20260504211002 11 337 1.6 4.8 0.03 0.08 0.03 92 1017.0
20260504210505 11 320 1.6 4.8 0.03 0.08 0.03 92 1016.9
20260504210005 11 313 1.6 3.2 0.03 0.08 0.03 92 1016.7
20260504205503 11 334 1.6 3.2 0.03 0.08 0.03 92 1016.7
20260504205003 11 326 1.6 4.8 0.03 0.08 0.03 92 1016.7
20260504204503 11 349 1.6 4.8 0.03 0.08 0.03 92 1016.7
20260504204002 12 344 1.6 3.2 0.03 0.08 0.03 92 1016.7
20260504203503 12 339 0.0 3.2 0.03 0.08 0.03 92 1016.6
20260504203005 12 339 0.0 3.2 0.00 0.05 0.00 92 1016.5
20260504202505 12 339 1.6 3.2 0.00 0.05 0.00 92 1016.4
20260504202003 12 339 1.6 3.2 0.00 0.05 0.00 91 1016.2
20260504201502 12 337 0.0 4.8 0.00 0.05 0.00 91 1016.1
20260504201002 12 337 0.0 4.8 0.00 0.05 0.00 92 1016.1
20260504200502 12 337 0.0 3.2 0.00 0.05 0.00 91 1016.1
20260504200005 12 337 0.0 3.2 0.00 0.05 0.00 91 1016.1
20260504195501 12 337 0.0 4.8 0.00 0.05 0.00 91 1016.0
20260504195002 12 337 1.6 4.8 0.00 0.05 0.00 91 1015.9
20260504194502 12 349 1.6 4.8 0.00 0.05 0.00 91 1015.8
20260504194005 12 359 1.6 6.4 0.00 0.05 0.00 90 1015.7
20260504193501 12 297 1.6 6.4 0.00 0.05 0.00 90 1015.6
20260504193002 12 306 1.6 6.4 0.00 0.05 0.00 89 1015.7
20260504192502 12 354 1.6 4.8 0.00 0.05 0.00 89 1015.7
20260504192003 12 354 1.6 4.8 0.00 0.05 0.00 89 1015.6
20260504191504 12 10 0.0 3.2 0.00 0.05 0.00 89 1015.5
20260504191002 12 350 0.0 3.2 0.00 0.05 0.00 89 1015.5
20260504190502 12 354 0.0 3.2 0.00 0.05 0.00 89 1015.3
20260504190008 12 354 0.0 4.8 0.00 0.05 0.00 89 1015.3
20260504185503 12 349 0.0 4.8 0.00 0.05 0.00 89 1015.1
20260504185002 12 348 1.6 4.8 0.00 0.05 0.00 88 1015.1
20260504184508 12 344 1.6 4.8 0.00 0.05 0.00 88 1015.0
20260504184002 12 347 1.6 4.8 0.00 0.05 0.00 88 1015.0
20260504183502 12 336 1.6 4.8 0.00 0.05 0.00 87 1014.9
20260504183002 12 345 1.6 4.8 0.00 0.05 0.00 87 1014.8
20260504182501 12 327 1.6 4.8 0.00 0.05 0.00 87 1014.8
20260504182002 12 318 1.6 4.8 0.00 0.05 0.00 87 1014.8
20260504181502 12 359 1.6 4.8 0.00 0.05 0.00 86 1014.8
20260504181002 12 359 1.6 4.8 0.00 0.05 0.00 86 1014.7
20260504180502 12 4 0.0 4.8 0.00 0.05 0.00 86 1014.7
20260504180004 12 359 1.6 4.8 0.00 0.05 0.00 86 1014.6
20260504175500 12 359 1.6 4.8 0.00 0.05 0.00 86 1014.5
20260504175001 12 312 3.2 4.8 0.00 0.05 0.00 85 1014.5
20260504174501 12 17 1.6 4.8 0.00 0.05 0.00 85 1014.6
20260504174001 12 8 1.6 4.8 0.00 0.05 0.00 85 1014.5
20260504173503 12 8 1.6 6.4 0.00 0.05 0.00 85 1014.6
20260504173000 12 354 1.6 6.4 0.00 0.05 0.00 85 1014.5
20260504172500 12 8 1.6 4.8 0.00 0.05 0.00 84 1014.5
20260504172001 12 345 0.0 4.8 0.00 0.05 0.00 84 1014.5
20260504171501 12 348 1.6 4.8 0.00 0.05 0.00 84 1014.5
20260504171003 12 4 1.6 4.8 0.00 0.05 0.00 84 1014.5
20260504170500 12 359 1.6 4.8 0.00 0.05 0.00 84 1014.4
20260504151000 12 337 1.6 4.8 0.00 0.05 0.00 83 1013.7
20260504150501 12 347 1.6 4.8 0.00 0.05 0.00 83 1013.7
20260504141002 13 359 1.6 4.8 0.00 0.05 0.00 81 1013.3
20260504140501 13 343 1.6 4.8 0.00 0.05 0.00 81 1013.3
20260504130504 13 325 3.2 8.0 0.00 0.05 0.00 80 1012.9
20260504110503 14 23 3.2 9.7 0.00 0.05 0.05 82 1011.8